Location: Unspecified
(50.7693°N, 0.0000°E)
Time: 06:02:13
(UTC+00:00)

Vanguard 2 - Pass Details

Date: 20 June 2019
Orbit: 553 x 2938 km, 32.9° (Epoch: 18 July)

Event Time Altitude Azimuth Distance (km) Brightness Sun altitude
Rises 09:24:22 0° 221° (SW) 3,551 10.8 49.2°
Reaches altitude 10° 09:27:17 10° 205° (SSW) 2,903 10.6 49.6°
Maximum altitude 09:32:26 21° 159° (SSE) 2,701 11.2 50.3°
Drops below altitude 10° 09:39:29 10° 117° (ESE) 4,156 12.1 51.3°
Sets 09:44:48 0° 104° (ESE) 5,634 12.5 52.0°
